Погода в Мафре

Португалия     38°56′18″N   9°19′39″W
темп.,
°C
ветер,
м/с
пор.,
м/с
влажн.,
%
обл.,
%
осадки,
мм/ч
давл.,
гПа
погр.,
м
16 сентября, чт
чт1601:00+18с389624 0.0 1018305
04:00+17ссз259725 0.0 1018178
07:00+18ссз369291 0.0 1018335
10:00+20ссз567991 0.0 1019662
13:00+25ссз55569 0.0 10191186
16:00+24ссз76560 0.0 1018920
19:00+20ссз710740 0.0 1019523
22:00+18ссз611850 0.0 1020494
17 сентября, пт
пт1701:00+17ссз410880 0.0 1019414
04:00+17с310932 0.0 1018347
07:00+16ссз310945 0.0 1018321
10:00+21ссз68655 0.0 1018689
13:00+24ссз675989 0.0 1018922
16:00+24сз686559 0.0 1017970
19:00+21сз58795 0.0 1017706
22:00+19с6119166 0.1 1018598
18 сентября, сб
сб1801:00+18ссз510746 0.1 1018586
04:00+17с511700 0.0 1018564
07:00+16с511710 0.0 1018570
10:00+20с810580 0.0 10181094
13:00+23ссз89480 0.0 10181231
16:00+22ссз910525 0.0 10181144
19:00+19с711680 0.0 1018881
22:00+17с612753 0.0 1018607
19 сентября, вс
вс1901:00+17с612755 0.0 1018581
04:00+17с6127912 0.0 1018616
07:00+16с511790 0.0 1018537
10:00+20с8106217 0.0 1018886
13:00+22ссз885399 0.0 10181046
16:00+22ссз885078 0.0 10171041
19:00+19ссз79628 0.0 1018966
22:00+17ссз511772 0.0 1019503
20 сентября, пн
пн2001:00+18ссз597771 0.0 1018802
04:00+18ссз6968100 0.1 10181068
07:00+18ссз695868 0.1 10181269
10:00+20ссз79546 0.1 10191523
13:00+21ссз89470 0.1 10191760
16:00+21ссз810440 0.0 10181735
19:00+19ссз610570 0.0 10191476
22:00+17ссз610691 0.0 1020613